Year,Month,Day,Hour,Minute,Value (Times are PST for temperature in C)
2018,06,19,00,00,18.50
2018,06,19,00,01,18.50
2018,06,19,00,02,18.40
2018,06,19,00,03,18.30
2018,06,19,00,04,18.30
2018,06,19,00,05,18.20
2018,06,19,00,06,18.20
2018,06,19,00,07,18.20
2018,06,19,00,08,18.10
2018,06,19,00,09,18.10
2018,06,19,00,10,18.10
2018,06,19,00,11,18.00
2018,06,19,00,12,18.00
2018,06,19,00,13,17.90
2018,06,19,00,14,17.90
2018,06,19,00,15,17.90
2018,06,19,00,16,17.80
2018,06,19,00,17,17.80
2018,06,19,00,18,17.80
2018,06,19,00,19,17.80
2018,06,19,00,20,17.70
2018,06,19,00,21,17.70
2018,06,19,00,22,17.70
2018,06,19,00,23,17.70
2018,06,19,00,24,17.70
2018,06,19,00,25,17.70
2018,06,19,00,26,17.70
2018,06,19,00,27,17.70
2018,06,19,00,28,17.70
2018,06,19,00,29,17.70
2018,06,19,00,30,17.70
2018,06,19,00,31,17.70
2018,06,19,00,32,17.70
2018,06,19,00,33,17.70
2018,06,19,00,34,17.70
2018,06,19,00,35,17.70
2018,06,19,00,36,17.70
2018,06,19,00,37,17.70
2018,06,19,00,38,17.70
2018,06,19,00,39,17.70
2018,06,19,00,40,17.80
2018,06,19,00,41,17.80
2018,06,19,00,42,17.80
2018,06,19,00,43,17.80
2018,06,19,00,44,17.80
2018,06,19,00,45,17.80
2018,06,19,00,46,17.80
2018,06,19,00,47,17.80
2018,06,19,00,48,17.80
2018,06,19,00,49,17.80
2018,06,19,00,50,17.80
2018,06,19,00,51,17.90
2018,06,19,00,52,18.00
2018,06,19,00,53,18.10
2018,06,19,00,54,18.10
2018,06,19,00,55,18.10
2018,06,19,00,56,18.20
2018,06,19,00,57,18.20
2018,06,19,00,58,18.20
2018,06,19,00,59,18.20
2018,06,19,01,00,18.20
2018,06,19,01,01,18.20
2018,06,19,01,02,18.20
2018,06,19,01,03,18.20
2018,06,19,01,04,18.20
2018,06,19,01,05,18.20
2018,06,19,01,06,18.20
2018,06,19,01,07,18.20
2018,06,19,01,08,18.20
2018,06,19,01,09,18.30
2018,06,19,01,10,18.40
2018,06,19,01,11,18.40
2018,06,19,01,12,18.40
2018,06,19,01,13,18.40
2018,06,19,01,14,18.50
2018,06,19,01,15,18.50
2018,06,19,01,16,18.50
2018,06,19,01,17,18.60
2018,06,19,01,18,18.50
2018,06,19,01,19,18.50
2018,06,19,01,20,18.40
2018,06,19,01,21,18.40
2018,06,19,01,22,18.50
2018,06,19,01,23,18.50
2018,06,19,01,24,18.60
2018,06,19,01,25,18.60
2018,06,19,01,26,18.70
2018,06,19,01,27,18.70
2018,06,19,01,28,18.70
2018,06,19,01,29,18.70
2018,06,19,01,30,18.70
2018,06,19,01,31,18.70
2018,06,19,01,32,18.80
2018,06,19,01,33,18.80
2018,06,19,01,34,18.80
2018,06,19,01,35,18.70
2018,06,19,01,36,18.70
2018,06,19,01,37,18.70
2018,06,19,01,38,18.70
2018,06,19,01,39,18.70
2018,06,19,01,40,18.70
2018,06,19,01,41,18.80
2018,06,19,01,42,18.80
2018,06,19,01,43,18.80
2018,06,19,01,44,18.80
2018,06,19,01,45,18.90
2018,06,19,01,46,18.90
2018,06,19,01,47,18.90
2018,06,19,01,48,19.00
2018,06,19,01,49,19.00
2018,06,19,01,50,19.10
2018,06,19,01,51,19.10
2018,06,19,01,52,19.20
2018,06,19,01,53,19.20
2018,06,19,01,54,19.20
2018,06,19,01,55,19.20
2018,06,19,01,56,19.30
2018,06,19,01,57,19.30
2018,06,19,01,58,19.30
2018,06,19,01,59,19.40
2018,06,19,02,00,19.40
2018,06,19,02,01,19.40
2018,06,19,02,02,19.40
2018,06,19,02,03,19.40
2018,06,19,02,04,19.30
2018,06,19,02,05,19.30
2018,06,19,02,06,19.30
2018,06,19,02,07,19.20
2018,06,19,02,08,19.20
2018,06,19,02,09,19.20
2018,06,19,02,10,19.20
2018,06,19,02,11,19.10
2018,06,19,02,12,19.10
2018,06,19,02,13,19.00
2018,06,19,02,14,19.00
2018,06,19,02,15,18.90
2018,06,19,02,16,18.80
2018,06,19,02,17,18.80
2018,06,19,02,18,18.70
2018,06,19,02,19,18.50
2018,06,19,02,20,18.40
2018,06,19,02,21,18.20
2018,06,19,02,22,18.10
2018,06,19,02,23,18.00
2018,06,19,02,24,17.80
2018,06,19,02,25,17.70
2018,06,19,02,26,17.50
2018,06,19,02,27,17.40
2018,06,19,02,28,17.30
2018,06,19,02,29,17.20
2018,06,19,02,30,17.10
2018,06,19,02,31,17.00
2018,06,19,02,32,17.00
2018,06,19,02,33,16.90
2018,06,19,02,34,16.80
2018,06,19,02,35,16.80
2018,06,19,02,36,16.80
2018,06,19,02,37,16.70
2018,06,19,02,38,16.60
2018,06,19,02,39,16.50
2018,06,19,02,40,16.50
2018,06,19,02,41,16.40
2018,06,19,02,42,16.40
2018,06,19,02,43,16.30
2018,06,19,02,44,16.30
2018,06,19,02,45,16.30
2018,06,19,02,46,16.30
2018,06,19,02,47,16.30
2018,06,19,02,48,16.20
2018,06,19,02,49,16.10
2018,06,19,02,50,16.10
2018,06,19,02,51,16.00
2018,06,19,02,52,16.00
2018,06,19,02,53,15.90
2018,06,19,02,54,15.90
2018,06,19,02,55,15.80
2018,06,19,02,56,15.80
2018,06,19,02,57,15.80
2018,06,19,02,58,15.80
2018,06,19,02,59,15.80
2018,06,19,03,00,15.90
2018,06,19,03,01,16.00
2018,06,19,03,02,16.00
2018,06,19,03,03,16.00
2018,06,19,03,04,16.10
2018,06,19,03,05,16.00
2018,06,19,03,06,16.00
2018,06,19,03,07,15.90
2018,06,19,03,08,15.80
2018,06,19,03,09,15.70
2018,06,19,03,10,15.70
2018,06,19,03,11,15.60
2018,06,19,03,12,15.60
2018,06,19,03,13,15.50
2018,06,19,03,14,15.50
2018,06,19,03,15,15.40
2018,06,19,03,16,15.40
2018,06,19,03,17,15.40
2018,06,19,03,18,15.40
2018,06,19,03,19,15.40
2018,06,19,03,20,15.40
2018,06,19,03,21,15.40
2018,06,19,03,22,15.30
2018,06,19,03,23,15.30
2018,06,19,03,24,15.30
2018,06,19,03,25,15.30
2018,06,19,03,26,15.30
2018,06,19,03,27,15.20
2018,06,19,03,28,15.20
2018,06,19,03,29,15.20
2018,06,19,03,30,15.20
2018,06,19,03,31,15.20
2018,06,19,03,32,15.10
2018,06,19,03,33,15.10
2018,06,19,03,34,15.10
2018,06,19,03,35,15.10
2018,06,19,03,36,15.00
2018,06,19,03,37,15.00
2018,06,19,03,38,15.00
2018,06,19,03,39,15.00
2018,06,19,03,40,15.00
2018,06,19,03,41,15.00
2018,06,19,03,42,14.90
2018,06,19,03,43,14.90
2018,06,19,03,44,14.90
2018,06,19,03,45,14.90
2018,06,19,03,46,14.90
2018,06,19,03,47,14.90
2018,06,19,03,48,14.80
2018,06,19,03,49,14.80
2018,06,19,03,50,14.70
2018,06,19,03,51,14.70
2018,06,19,03,52,14.70
2018,06,19,03,53,14.60
2018,06,19,03,54,14.60
2018,06,19,03,55,14.60
2018,06,19,03,56,14.50
2018,06,19,03,57,14.40
2018,06,19,03,58,14.40
2018,06,19,03,59,14.40
2018,06,19,04,00,14.30
2018,06,19,04,01,14.30
2018,06,19,04,02,14.30
2018,06,19,04,03,14.30
2018,06,19,04,04,14.30
2018,06,19,04,05,14.20
2018,06,19,04,06,14.20
2018,06,19,04,07,14.20
2018,06,19,04,08,14.20
2018,06,19,04,09,14.10
2018,06,19,04,10,14.10
2018,06,19,04,11,14.10
2018,06,19,04,12,14.10
2018,06,19,04,13,14.10
2018,06,19,04,14,14.10
2018,06,19,04,15,14.10
2018,06,19,04,16,14.10
2018,06,19,04,17,14.10
2018,06,19,04,18,14.10
2018,06,19,04,19,14.10
2018,06,19,04,20,14.00
2018,06,19,04,21,14.00
2018,06,19,04,22,14.00
2018,06,19,04,23,13.90
2018,06,19,04,24,13.90
2018,06,19,04,25,13.90
2018,06,19,04,26,13.90
2018,06,19,04,27,13.80
2018,06,19,04,28,13.80
2018,06,19,04,29,13.70
2018,06,19,04,30,13.70
2018,06,19,04,31,13.70
2018,06,19,04,32,13.60
2018,06,19,04,33,13.60
2018,06,19,04,34,13.50
2018,06,19,04,35,13.50
2018,06,19,04,36,13.40
2018,06,19,04,37,13.40
2018,06,19,04,38,13.40
2018,06,19,04,39,13.40
2018,06,19,04,40,13.30
2018,06,19,04,41,13.30
2018,06,19,04,42,13.30
2018,06,19,04,43,13.30
2018,06,19,04,44,13.30
2018,06,19,04,45,13.30
2018,06,19,04,46,13.30
2018,06,19,04,47,13.30
2018,06,19,04,48,13.30
2018,06,19,04,49,13.30
2018,06,19,04,50,13.30
2018,06,19,04,51,13.20
2018,06,19,04,52,13.20
2018,06,19,04,53,13.20
2018,06,19,04,54,13.20
2018,06,19,04,55,13.30
2018,06,19,04,56,13.30
2018,06,19,04,57,13.30
2018,06,19,04,58,13.30
2018,06,19,04,59,13.30
2018,06,19,05,00,13.20
2018,06,19,05,01,13.20
2018,06,19,05,02,13.10
2018,06,19,05,03,13.10
2018,06,19,05,04,13.00
2018,06,19,05,05,12.90
2018,06,19,05,06,12.90
2018,06,19,05,07,12.80
2018,06,19,05,08,12.80
2018,06,19,05,09,12.80
2018,06,19,05,10,12.70
2018,06,19,05,11,12.70
2018,06,19,05,12,12.70
2018,06,19,05,13,12.70
2018,06,19,05,14,12.60
2018,06,19,05,15,12.60
2018,06,19,05,16,12.60
2018,06,19,05,17,12.60
2018,06,19,05,18,12.60
2018,06,19,05,19,12.60
2018,06,19,05,20,12.60
2018,06,19,05,21,12.60
2018,06,19,05,22,12.60
2018,06,19,05,23,12.60
2018,06,19,05,24,12.60
2018,06,19,05,25,12.60
2018,06,19,05,26,12.60
2018,06,19,05,27,12.60
2018,06,19,05,28,12.60
2018,06,19,05,29,12.60
2018,06,19,05,30,12.50
2018,06,19,05,31,12.50
2018,06,19,05,32,12.50
2018,06,19,05,33,12.50
2018,06,19,05,34,12.50
2018,06,19,05,35,12.40
2018,06,19,05,36,12.40
2018,06,19,05,37,12.40
2018,06,19,05,38,12.40
2018,06,19,05,39,12.40
2018,06,19,05,40,12.40
2018,06,19,05,41,12.40
2018,06,19,05,42,12.50
2018,06,19,05,43,12.50
2018,06,19,05,44,12.50
2018,06,19,05,45,12.60
2018,06,19,05,46,12.60
2018,06,19,05,47,12.60
2018,06,19,05,48,12.60
2018,06,19,05,49,12.60
2018,06,19,05,50,12.60
2018,06,19,05,51,12.60
2018,06,19,05,52,12.60
2018,06,19,05,53,12.70
2018,06,19,05,54,12.70
2018,06,19,05,55,12.70
2018,06,19,05,56,12.70
2018,06,19,05,57,12.70
2018,06,19,05,58,12.80
2018,06,19,05,59,12.80
2018,06,19,06,00,12.80
2018,06,19,06,01,12.80
2018,06,19,06,02,12.80
2018,06,19,06,03,12.80
2018,06,19,06,04,12.80
2018,06,19,06,05,12.80
2018,06,19,06,06,12.90
2018,06,19,06,07,12.90
2018,06,19,06,08,12.90
2018,06,19,06,09,13.00
2018,06,19,06,10,13.00
2018,06,19,06,11,13.10
2018,06,19,06,12,13.10
2018,06,19,06,13,13.20
2018,06,19,06,14,13.30
2018,06,19,06,15,13.30
2018,06,19,06,16,13.30
2018,06,19,06,17,13.30
2018,06,19,06,18,13.30
2018,06,19,06,19,13.30
2018,06,19,06,20,13.30
2018,06,19,06,21,13.30
2018,06,19,06,22,13.30
2018,06,19,06,23,13.40
2018,06,19,06,24,13.40
2018,06,19,06,25,13.40
2018,06,19,06,26,13.40
2018,06,19,06,27,13.40
2018,06,19,06,28,13.50
2018,06,19,06,29,13.50
2018,06,19,06,30,13.50
2018,06,19,06,31,13.60
2018,06,19,06,32,13.60
2018,06,19,06,33,13.60
2018,06,19,06,34,13.60
2018,06,19,06,35,13.60
2018,06,19,06,36,13.70
2018,06,19,06,37,13.70
2018,06,19,06,38,13.70
2018,06,19,06,39,13.80
2018,06,19,06,40,13.80
2018,06,19,06,41,13.90
2018,06,19,06,42,13.90
2018,06,19,06,43,14.00
2018,06,19,06,44,14.10
2018,06,19,06,45,14.10
2018,06,19,06,46,14.20
2018,06,19,06,47,14.20
2018,06,19,06,48,14.20
2018,06,19,06,49,14.20
2018,06,19,06,50,14.20
2018,06,19,06,51,14.20
2018,06,19,06,52,14.20
2018,06,19,06,53,14.10
2018,06,19,06,54,14.20
2018,06,19,06,55,14.20
2018,06,19,06,56,14.20
2018,06,19,06,57,14.20
2018,06,19,06,58,14.20
2018,06,19,06,59,14.30
2018,06,19,07,00,14.30
2018,06,19,07,01,14.30
2018,06,19,07,02,14.40
2018,06,19,07,03,14.40
2018,06,19,07,04,14.50
2018,06,19,07,05,14.60
2018,06,19,07,06,14.60
2018,06,19,07,07,14.60
2018,06,19,07,08,14.70
2018,06,19,07,09,14.70
2018,06,19,07,10,14.70
2018,06,19,07,11,14.70
2018,06,19,07,12,14.70
2018,06,19,07,13,14.80
2018,06,19,07,14,14.80
2018,06,19,07,15,14.80
2018,06,19,07,16,14.80
2018,06,19,07,17,14.80
2018,06,19,07,18,14.80
2018,06,19,07,19,14.80
2018,06,19,07,20,14.70
2018,06,19,07,21,14.70
2018,06,19,07,22,14.50
2018,06,19,07,23,14.50
2018,06,19,07,24,14.40
2018,06,19,07,25,14.40
2018,06,19,07,26,14.40
2018,06,19,07,27,14.40
2018,06,19,07,28,14.40
2018,06,19,07,29,14.40
2018,06,19,07,30,14.30
2018,06,19,07,31,14.30
2018,06,19,07,32,14.30
2018,06,19,07,33,14.30
2018,06,19,07,34,14.30
2018,06,19,07,35,14.30
2018,06,19,07,36,14.20
2018,06,19,07,37,14.20
2018,06,19,07,38,14.20
2018,06,19,07,39,14.20
2018,06,19,07,40,14.20
2018,06,19,07,41,14.10
2018,06,19,07,42,14.10
2018,06,19,07,43,14.00
2018,06,19,07,44,14.00
2018,06,19,07,45,14.00
2018,06,19,07,46,13.90
2018,06,19,07,47,13.90
2018,06,19,07,48,13.90
2018,06,19,07,49,13.80
2018,06,19,07,50,13.80
2018,06,19,07,51,13.80
2018,06,19,07,52,13.90
2018,06,19,07,53,13.90
2018,06,19,07,54,13.90
2018,06,19,07,55,13.80
2018,06,19,07,56,13.80
2018,06,19,07,57,13.80
2018,06,19,07,58,13.80
2018,06,19,07,59,13.80
2018,06,19,08,00,13.80
2018,06,19,08,01,13.80
2018,06,19,08,02,13.80
2018,06,19,08,03,13.80
2018,06,19,08,04,13.80
2018,06,19,08,05,13.80
2018,06,19,08,06,13.80
2018,06,19,08,07,13.80
2018,06,19,08,08,13.80
2018,06,19,08,09,13.80
2018,06,19,08,10,13.80
2018,06,19,08,11,13.80
2018,06,19,08,12,13.80
2018,06,19,08,13,13.80
2018,06,19,08,14,13.80
2018,06,19,08,15,13.80
2018,06,19,08,16,13.90
2018,06,19,08,17,13.90
2018,06,19,08,18,14.00
2018,06,19,08,19,14.10
2018,06,19,08,20,14.20
2018,06,19,08,21,14.30
2018,06,19,08,22,14.40
2018,06,19,08,23,14.50
2018,06,19,08,24,14.50
2018,06,19,08,25,14.60
2018,06,19,08,26,14.70
2018,06,19,08,27,14.80
2018,06,19,08,28,14.80
2018,06,19,08,29,14.80
2018,06,19,08,30,14.80
2018,06,19,08,31,14.80
2018,06,19,08,32,14.80
2018,06,19,08,33,14.80
2018,06,19,08,34,14.90
2018,06,19,08,35,14.80
2018,06,19,08,36,14.80
2018,06,19,08,37,14.80
2018,06,19,08,38,14.80
2018,06,19,08,39,14.80
2018,06,19,08,40,14.70
2018,06,19,08,41,14.70
2018,06,19,08,42,14.70
2018,06,19,08,43,14.70
2018,06,19,08,44,14.70
2018,06,19,08,45,14.70
2018,06,19,08,46,14.70
2018,06,19,08,47,14.70
2018,06,19,08,48,14.60
2018,06,19,08,49,14.60
2018,06,19,08,50,14.70
2018,06,19,08,51,14.70
2018,06,19,08,52,14.80
2018,06,19,08,53,14.80
2018,06,19,08,54,14.80
2018,06,19,08,55,14.80
2018,06,19,08,56,14.80
2018,06,19,08,57,14.80
2018,06,19,08,58,14.80
2018,06,19,08,59,14.80
2018,06,19,09,00,14.70
2018,06,19,09,01,14.80
2018,06,19,09,02,14.80
2018,06,19,09,03,14.90
2018,06,19,09,04,15.00
2018,06,19,09,05,15.00
2018,06,19,09,06,15.10
2018,06,19,09,07,15.10
2018,06,19,09,08,15.10
2018,06,19,09,09,15.10
2018,06,19,09,10,15.10
2018,06,19,09,11,15.20
2018,06,19,09,12,15.20
2018,06,19,09,13,15.30
2018,06,19,09,14,15.30
2018,06,19,09,15,15.40
2018,06,19,09,16,15.40
2018,06,19,09,17,15.50
2018,06,19,09,18,15.60
2018,06,19,09,19,15.70
2018,06,19,09,20,15.90
2018,06,19,09,21,16.00
2018,06,19,09,22,16.10
2018,06,19,09,23,16.20
2018,06,19,09,24,16.20
2018,06,19,09,25,16.20
2018,06,19,09,26,16.30
2018,06,19,09,27,16.20
2018,06,19,09,28,16.20
2018,06,19,09,29,16.20
2018,06,19,09,30,16.30
2018,06,19,09,31,16.30
2018,06,19,09,32,16.30
2018,06,19,09,33,16.30
2018,06,19,09,34,16.20
2018,06,19,09,35,16.20
2018,06,19,09,36,16.20
2018,06,19,09,37,16.10
2018,06,19,09,38,16.10
2018,06,19,09,39,16.10
2018,06,19,09,40,16.10
2018,06,19,09,41,16.10
2018,06,19,09,42,16.20
2018,06,19,09,43,16.40
2018,06,19,09,44,16.50
2018,06,19,09,45,16.60
2018,06,19,09,46,16.60
2018,06,19,09,47,16.60
2018,06,19,09,48,16.70
2018,06,19,09,49,16.70
2018,06,19,09,50,16.80
2018,06,19,09,51,16.80
2018,06,19,09,52,16.80
2018,06,19,09,53,16.70
2018,06,19,09,54,16.70
2018,06,19,09,55,16.70
2018,06,19,09,56,16.60
2018,06,19,09,57,16.60
2018,06,19,09,58,16.60
2018,06,19,09,59,16.70
2018,06,19,10,00,16.70
2018,06,19,10,01,16.70
2018,06,19,10,02,16.70
2018,06,19,10,03,16.70
2018,06,19,10,04,16.70
2018,06,19,10,05,16.70
2018,06,19,10,06,16.70
2018,06,19,10,07,16.70
2018,06,19,10,08,16.80
2018,06,19,10,09,16.90
2018,06,19,10,10,17.00
2018,06,19,10,11,17.10
2018,06,19,10,12,17.20
2018,06,19,10,13,17.20
2018,06,19,10,14,17.30
2018,06,19,10,15,17.30
2018,06,19,10,16,17.40
2018,06,19,10,17,17.40
2018,06,19,10,18,17.50
2018,06,19,10,19,17.60
2018,06,19,10,20,17.80
2018,06,19,10,21,17.90
2018,06,19,10,22,18.10
2018,06,19,10,23,18.20
2018,06,19,10,24,18.30
2018,06,19,10,25,18.40
2018,06,19,10,26,18.40
2018,06,19,10,27,18.50
2018,06,19,10,28,18.50
2018,06,19,10,29,18.50
2018,06,19,10,30,18.60
2018,06,19,10,31,18.60
2018,06,19,10,32,18.60
2018,06,19,10,33,18.60
2018,06,19,10,34,18.60
2018,06,19,10,35,18.50
2018,06,19,10,36,18.50
2018,06,19,10,37,18.60
2018,06,19,10,38,18.60
2018,06,19,10,39,18.60
2018,06,19,10,40,18.60
2018,06,19,10,41,18.60
2018,06,19,10,42,18.60
2018,06,19,10,43,18.60
2018,06,19,10,44,18.60
2018,06,19,10,45,18.50
2018,06,19,10,46,18.20
2018,06,19,10,47,17.80
2018,06,19,10,48,17.60
2018,06,19,10,49,17.50
2018,06,19,10,50,17.40
2018,06,19,10,51,17.30
2018,06,19,10,52,17.10
2018,06,19,10,53,17.00
2018,06,19,10,54,16.90
2018,06,19,10,55,16.70
2018,06,19,10,56,16.60
2018,06,19,10,57,16.50
2018,06,19,10,58,16.60
2018,06,19,10,59,16.70
2018,06,19,11,00,16.90
2018,06,19,11,01,17.10
2018,06,19,11,02,17.30
2018,06,19,11,03,17.50
2018,06,19,11,04,17.70
2018,06,19,11,05,17.80
2018,06,19,11,06,18.00
2018,06,19,11,07,18.10
2018,06,19,11,08,18.20
2018,06,19,11,09,18.30
2018,06,19,11,10,18.40
2018,06,19,11,11,18.40
2018,06,19,11,12,18.40
2018,06,19,11,13,18.30
2018,06,19,11,14,18.30
2018,06,19,11,15,18.40
2018,06,19,11,16,18.50
2018,06,19,11,17,18.60
2018,06,19,11,18,18.70
2018,06,19,11,19,18.70
2018,06,19,11,20,18.50
2018,06,19,11,21,18.10
2018,06,19,11,22,17.90
2018,06,19,11,23,17.60
2018,06,19,11,24,17.40
2018,06,19,11,25,17.30
2018,06,19,11,26,17.30
2018,06,19,11,27,17.20
2018,06,19,11,28,17.40
2018,06,19,11,29,17.60
2018,06,19,11,30,17.90
2018,06,19,11,31,18.00
2018,06,19,11,32,18.30
2018,06,19,11,33,18.50
2018,06,19,11,34,18.40
2018,06,19,11,35,18.20
2018,06,19,11,36,17.90
2018,06,19,11,37,17.70
2018,06,19,11,38,17.20
2018,06,19,11,39,16.90
2018,06,19,11,40,16.70
2018,06,19,11,41,16.50
2018,06,19,11,42,16.30
2018,06,19,11,43,16.30
2018,06,19,11,44,16.20
2018,06,19,11,45,16.10
2018,06,19,11,46,16.20
2018,06,19,11,47,16.30
2018,06,19,11,48,16.40
2018,06,19,11,49,16.50
2018,06,19,11,50,16.50
2018,06,19,11,51,16.70
2018,06,19,11,52,16.70
2018,06,19,11,53,16.70
2018,06,19,11,54,16.80
2018,06,19,11,55,16.80
2018,06,19,11,56,17.10
2018,06,19,11,57,17.20
2018,06,19,11,58,17.40
2018,06,19,11,59,17.60
2018,06,19,12,00,17.80
2018,06,19,12,01,17.80
2018,06,19,12,02,17.90
2018,06,19,12,03,17.80
2018,06,19,12,04,17.80
2018,06,19,12,05,17.60
2018,06,19,12,06,17.50
2018,06,19,12,07,17.40
2018,06,19,12,08,17.30
2018,06,19,12,09,17.20
2018,06,19,12,10,17.30
2018,06,19,12,11,17.40
2018,06,19,12,12,17.50
2018,06,19,12,13,17.50
2018,06,19,12,14,17.50
2018,06,19,12,15,17.50
2018,06,19,12,16,17.50
2018,06,19,12,17,17.60
2018,06,19,12,18,17.60
2018,06,19,12,19,17.60
2018,06,19,12,20,17.80
2018,06,19,12,21,18.00
2018,06,19,12,22,18.40
2018,06,19,12,23,18.70
2018,06,19,12,24,18.90
2018,06,19,12,25,18.90
2018,06,19,12,26,18.90
2018,06,19,12,27,18.90
2018,06,19,12,28,18.90
2018,06,19,12,29,18.90
2018,06,19,12,30,18.70
2018,06,19,12,31,18.40
2018,06,19,12,32,18.20
2018,06,19,12,33,18.00
2018,06,19,12,34,17.90
2018,06,19,12,35,17.80
2018,06,19,12,36,17.50
2018,06,19,12,37,17.40
2018,06,19,12,38,17.10
2018,06,19,12,39,16.90
2018,06,19,12,40,16.70
2018,06,19,12,41,16.60
2018,06,19,12,42,16.50
2018,06,19,12,43,16.60
2018,06,19,12,44,16.70
2018,06,19,12,45,16.80
2018,06,19,12,46,16.90
2018,06,19,12,47,17.00
2018,06,19,12,48,17.10
2018,06,19,12,49,17.20
2018,06,19,12,50,17.30
2018,06,19,12,51,17.30
2018,06,19,12,52,17.40
2018,06,19,12,53,17.40
2018,06,19,12,54,17.40
2018,06,19,12,55,17.40
2018,06,19,12,56,17.30
2018,06,19,12,57,17.20
2018,06,19,12,58,17.20
2018,06,19,12,59,17.20
2018,06,19,13,00,17.20
2018,06,19,13,01,17.20
2018,06,19,13,02,17.10
2018,06,19,13,03,16.80
2018,06,19,13,04,16.70
2018,06,19,13,05,16.50
2018,06,19,13,06,16.30
2018,06,19,13,07,16.20
2018,06,19,13,08,16.20
2018,06,19,13,09,16.30
2018,06,19,13,10,16.20
2018,06,19,13,11,16.20
2018,06,19,13,12,16.20
2018,06,19,13,13,16.20
2018,06,19,13,14,16.10
2018,06,19,13,15,16.00
2018,06,19,13,16,16.00
2018,06,19,13,17,16.00
2018,06,19,13,18,16.00
2018,06,19,13,19,16.10
2018,06,19,13,20,16.10
2018,06,19,13,21,16.10
2018,06,19,13,22,15.90
2018,06,19,13,23,15.90
2018,06,19,13,24,15.80
2018,06,19,13,25,15.80
2018,06,19,13,26,15.70
2018,06,19,13,27,15.70
2018,06,19,13,28,15.70
2018,06,19,13,29,15.80
2018,06,19,13,30,16.00
2018,06,19,13,31,16.20
2018,06,19,13,32,16.30
2018,06,19,13,33,16.40
2018,06,19,13,34,16.40
2018,06,19,13,35,16.30
2018,06,19,13,36,16.30
2018,06,19,13,37,16.30
2018,06,19,13,38,16.10
2018,06,19,13,39,16.10
2018,06,19,13,40,16.00
2018,06,19,13,41,16.10
2018,06,19,13,42,16.10
2018,06,19,13,43,16.00
2018,06,19,13,44,16.00
2018,06,19,13,45,15.90
2018,06,19,13,46,16.00
2018,06,19,13,47,16.20
2018,06,19,13,48,16.30
2018,06,19,13,49,16.30
2018,06,19,13,50,16.40
2018,06,19,13,51,16.50
2018,06,19,13,52,16.60
2018,06,19,13,53,16.80
2018,06,19,13,54,17.00
2018,06,19,13,55,17.10
2018,06,19,13,56,17.20
2018,06,19,13,57,17.20
2018,06,19,13,58,17.20
2018,06,19,13,59,17.20
2018,06,19,14,00,17.20
2018,06,19,14,01,17.30
2018,06,19,14,02,17.30
2018,06,19,14,03,17.30
2018,06,19,14,04,17.40
2018,06,19,14,05,17.40
2018,06,19,14,06,17.40
2018,06,19,14,07,17.40
2018,06,19,14,08,17.30
2018,06,19,14,09,17.30
2018,06,19,14,10,17.30
2018,06,19,14,11,17.20
2018,06,19,14,12,17.00
2018,06,19,14,13,16.80
2018,06,19,14,14,16.80
2018,06,19,14,15,16.80
2018,06,19,14,16,16.90
2018,06,19,14,17,17.00
2018,06,19,14,18,17.00
2018,06,19,14,19,16.90
2018,06,19,14,20,16.90
2018,06,19,14,21,16.90
2018,06,19,14,22,16.80
2018,06,19,14,23,16.80
2018,06,19,14,24,16.80
2018,06,19,14,25,16.70
2018,06,19,14,26,16.60
2018,06,19,14,27,16.70
2018,06,19,14,28,16.70
2018,06,19,14,29,16.80
2018,06,19,14,30,16.80
2018,06,19,14,31,16.80
2018,06,19,14,32,16.80
2018,06,19,14,33,16.80
2018,06,19,14,34,16.90
2018,06,19,14,35,16.90
2018,06,19,14,36,16.90
2018,06,19,14,37,16.90
2018,06,19,14,38,16.90
2018,06,19,14,39,17.00
2018,06,19,14,40,17.00
2018,06,19,14,41,17.10
2018,06,19,14,42,17.10
2018,06,19,14,43,17.00
2018,06,19,14,44,16.90
2018,06,19,14,45,16.80
2018,06,19,14,46,16.80
2018,06,19,14,47,16.90
2018,06,19,14,48,17.10
2018,06,19,14,49,17.20
2018,06,19,14,50,17.40
2018,06,19,14,51,17.60
2018,06,19,14,52,17.50
2018,06,19,14,53,17.50
2018,06,19,14,54,17.50
2018,06,19,14,55,17.60
2018,06,19,14,56,17.70
2018,06,19,14,57,17.60
2018,06,19,14,58,17.40
2018,06,19,14,59,17.20
2018,06,19,15,00,17.10
2018,06,19,15,01,16.90
2018,06,19,15,02,16.70
2018,06,19,15,03,16.70
2018,06,19,15,04,16.70
2018,06,19,15,05,16.60
2018,06,19,15,06,16.60
2018,06,19,15,07,16.50
2018,06,19,15,08,16.40
2018,06,19,15,09,16.30
2018,06,19,15,10,16.20
2018,06,19,15,11,16.10
2018,06,19,15,12,16.10
2018,06,19,15,13,16.00
2018,06,19,15,14,15.90
2018,06,19,15,15,15.90
2018,06,19,15,16,15.80
2018,06,19,15,17,15.90
2018,06,19,15,18,16.00
2018,06,19,15,19,16.10
2018,06,19,15,20,16.10
2018,06,19,15,21,16.10
2018,06,19,15,22,16.10
2018,06,19,15,23,16.20
2018,06,19,15,24,16.20
2018,06,19,15,25,16.20
2018,06,19,15,26,16.20
2018,06,19,15,27,16.30
2018,06,19,15,28,16.30
2018,06,19,15,29,16.20
2018,06,19,15,30,16.20
2018,06,19,15,31,16.10
2018,06,19,15,32,16.10
2018,06,19,15,33,15.90
2018,06,19,15,34,15.90
2018,06,19,15,35,15.80
2018,06,19,15,36,15.80
2018,06,19,15,37,15.90
2018,06,19,15,38,16.00
2018,06,19,15,39,16.10
2018,06,19,15,40,16.10
2018,06,19,15,41,16.10
2018,06,19,15,42,16.10
2018,06,19,15,43,16.00
2018,06,19,15,44,16.00
2018,06,19,15,45,16.00
2018,06,19,15,46,15.90
2018,06,19,15,47,15.80
2018,06,19,15,48,15.70
2018,06,19,15,49,15.60
2018,06,19,15,50,15.60
2018,06,19,15,51,15.50
2018,06,19,15,52,15.50
2018,06,19,15,53,15.40
2018,06,19,15,54,15.40
2018,06,19,15,55,15.40
2018,06,19,15,56,15.40
2018,06,19,15,57,15.50
2018,06,19,15,58,15.50
2018,06,19,15,59,15.60
2018,06,19,16,00,15.60
2018,06,19,16,01,15.70
2018,06,19,16,02,15.70
2018,06,19,16,03,15.80
2018,06,19,16,04,16.00
2018,06,19,16,05,16.20
2018,06,19,16,06,16.40
2018,06,19,16,07,16.60
2018,06,19,16,08,16.80
2018,06,19,16,09,17.00
2018,06,19,16,10,17.20
2018,06,19,16,11,17.40
2018,06,19,16,12,17.50
2018,06,19,16,13,17.70
2018,06,19,16,14,17.80
2018,06,19,16,15,18.00
2018,06,19,16,16,18.00
2018,06,19,16,17,18.00
2018,06,19,16,18,18.00
2018,06,19,16,19,17.80
2018,06,19,16,20,17.50
2018,06,19,16,21,17.40
2018,06,19,16,22,17.30
2018,06,19,16,23,17.20
2018,06,19,16,24,17.10
2018,06,19,16,25,17.00
2018,06,19,16,26,16.90
2018,06,19,16,27,16.80
2018,06,19,16,28,16.80
2018,06,19,16,29,16.80
2018,06,19,16,30,16.80
2018,06,19,16,31,16.70
2018,06,19,16,32,16.60
2018,06,19,16,33,16.50
2018,06,19,16,34,16.40
2018,06,19,16,35,16.40
2018,06,19,16,36,16.50
2018,06,19,16,37,16.60
2018,06,19,16,38,16.80
2018,06,19,16,39,16.90
2018,06,19,16,40,16.90
2018,06,19,16,41,17.10
2018,06,19,16,42,17.20
2018,06,19,16,43,17.40
2018,06,19,16,44,17.50
2018,06,19,16,45,17.60
2018,06,19,16,46,17.70
2018,06,19,16,47,17.80
2018,06,19,16,48,17.90
2018,06,19,16,49,17.90
2018,06,19,16,50,17.90
2018,06,19,16,51,18.00
2018,06,19,16,52,18.00
2018,06,19,16,53,18.10
2018,06,19,16,54,18.10
2018,06,19,16,55,18.00
2018,06,19,16,56,17.80
2018,06,19,16,57,17.70
2018,06,19,16,58,17.60
2018,06,19,16,59,17.30
2018,06,19,17,00,17.00
2018,06,19,17,01,16.80
2018,06,19,17,02,16.50
2018,06,19,17,03,16.30
2018,06,19,17,04,16.20
2018,06,19,17,05,16.00
2018,06,19,17,06,16.00
2018,06,19,17,07,16.00
2018,06,19,17,08,15.90
2018,06,19,17,09,15.90
2018,06,19,17,10,15.80
2018,06,19,17,11,15.80
2018,06,19,17,12,15.80
2018,06,19,17,13,15.80
2018,06,19,17,14,15.80
2018,06,19,17,15,15.90
2018,06,19,17,16,15.90
2018,06,19,17,17,15.90
2018,06,19,17,18,15.90
2018,06,19,17,19,15.90